Home > Time Zones > World Clock > Weather > Aktau > Past weeks

Flag for Kazakhstan Weather past 2 weeks in Aktau, Kazakhstan

Now
43 °F

Broken clouds.


Feels Like: 38 °F
Forecast: 32 / 46 °F
Wind: 8 mph from West

Location: Aktau

Current Time: Mar 6, 2015 at 11:45:08 AM

Latest Report: Mar 6, 2015 at 11:00 AM


Visibility: N/A

Pressure: 30.42 "Hg

Humidity: 76%

Dew point: 36 °F

Location of AktauLocation

Historic Weather in Aktau — Graph

°F

Aktau temperature yesterday

Maximum temperature yesterday: 45 °F (at 1:30 PM)
Minimum temperature yesterday: 28 °F (at 9:30 AM)
Average temperature yesterday: 37 °F

Past Weeks' High & Low Weather Summary

 TemperatureHumidityPressure
High54 °F (Mar 1, 3:30 PM)93% (Feb 24, 5:30 AM)30.60 "Hg (Feb 24, 5:30 AM)
Low18 °F (Feb 21, 7:00 AM)13% (Feb 23, 3:30 PM)29.95 "Hg (Mar 2, 3:00 PM)
Average34 °F62%30.23 "Hg
* Reported Feb 19 10:00 AM — Mar 6 10:30 AM, Aktau, Weather by CustomWeather, © 2015

Note: Actual official high and low records may vary slightly from our data, if they occured in-between our weather recording intervals... More about our weather records

Advertising

Aktau weather history for previous 24 hours

 ConditionsComfort  
Time TempWeatherWind HumidityBarometerVisibility
10:30 AM
Fri, Mar 6
41 °FSunny.8 mph81%30.42 "Hg10 mi
10:00 AM39 °FClear.No wind81%30.39 "Hg10 mi
9:30 AM36 °FClear.No wind87%30.39 "Hg10 mi
9:00 AM34 °FPartly cloudy.1 mph87%30.39 "HgN/A
8:30 AM34 °FPassing clouds.3 mph87%30.39 "HgN/A
8:00 AM34 °FPassing clouds.3 mph87%30.36 "HgN/A
7:30 AM34 °FPassing clouds.3 mph87%30.36 "HgN/A
7:00 AM32 °FPassing clouds.3 mph87%30.36 "HgN/A
6:30 AM34 °FPassing clouds.3 mph81%30.36 "HgN/A
6:00 AM34 °FMostly cloudy.3 mph81%30.36 "HgN/A
5:30 AM34 °FMostly cloudy.6 mph75%30.36 "HgN/A
5:00 AM32 °FPassing clouds.6 mph80%30.36 "HgN/A
4:30 AM28 °FPartly cloudy.6 mph74%30.36 "HgN/A
4:00 AM32 °FPartly cloudy.6 mph69%30.36 "HgN/A
3:30 AM30 °FPartly cloudy.6 mph75%30.36 "HgN/A
3:00 AM32 °FPartly cloudy.6 mph69%30.33 "HgN/A
2:30 AM34 °FMostly cloudy.3 mph65%30.33 "HgN/A
1:30 AM37 °FOvercast.6 mph60%30.33 "HgN/A
1:00 AM37 °FOvercast.6 mph60%30.30 "HgN/A
12:30 AM37 °FOvercast.6 mph60%30.30 "HgN/A
12:00 AM37 °FOvercast.6 mph56%30.30 "HgN/A
11:30 PM
Thu, Mar 5
37 °FClear.3 mph56%30.30 "Hg10 mi
11:00 PM37 °FClear.3 mph56%30.30 "Hg10 mi
10:30 PM37 °FClear.6 mph56%30.27 "Hg10 mi
10:00 PM37 °FClear.6 mph56%30.27 "Hg10 mi
9:30 PM37 °FClear.6 mph56%30.27 "Hg10 mi
9:00 PM39 °FSunny.6 mph48%30.27 "Hg10 mi
8:30 PM39 °FPassing clouds.6 mph45%30.27 "HgN/A
8:00 PM39 °FSunny.8 mph45%30.24 "Hg10 mi
7:30 PM39 °FBroken clouds.8 mph65%30.21 "HgN/A
7:00 PM39 °FBroken clouds.10 mph61%30.21 "HgN/A
6:30 PM39 °FSunny.10 mph65%30.21 "Hg10 mi
6:00 PM41 °FSunny.13 mph57%30.21 "Hg10 mi
5:30 PM41 °FSunny.13 mph61%30.21 "Hg10 mi
5:00 PM41 °FPassing clouds.15 mph61%30.21 "HgN/A
4:30 PM43 °FSunny.15 mph57%30.18 "Hg10 mi
4:00 PM43 °FPassing clouds.17 mph57%30.18 "HgN/A
3:30 PM43 °FSunny.17 mph57%30.18 "Hg10 mi
3:00 PM43 °FSunny.10 mph53%30.18 "Hg10 mi
2:30 PM43 °FSunny.8 mph53%30.18 "Hg10 mi
2:00 PM45 °FScattered clouds.8 mph49%30.18 "HgN/A
1:30 PM45 °FSunny.8 mph42%30.18 "Hg10 mi
1:00 PM43 °FSunny.6 mph46%30.18 "Hg10 mi
12:30 PM41 °FSunny.6 mph53%30.18 "Hg10 mi
12:00 PM37 °FPassing clouds.6 mph60%30.21 "HgN/A
11:30 AM36 °FScattered clouds.3 mph70%30.21 "HgN/A
11:00 AM34 °FScattered clouds.6 mph75%30.21 "HgN/A
Weather by CustomWeather, © 2015

See weather overviewHow to use our weather pages